Regional Weather Roundup
Issued by NWS

Home | Current Version | Previous Version | Graphics & Text | Print | Product List | Glossary On
Versions: 1 2 3 4 5 6 7 8 9 10 11 12 13 14 15 16 17 18 19 20 21 22 23 24 25 26 27 28 29 30 31 32 33 34 35 36 37 38 39 40 41 42 43 44 45 46 47 48 49 50
000
ASUS45 KCYS 302310
RWRWY

WYOMING REGIONAL WEATHER ROUNDUP
NATIONAL WEATHER SERVICE CHEYENNE WY
500 PM MDT SUN AUG 30 2015

NOTE:  "FAIR" INDICATES FEW OR NO CLOUDS BELOW 12,000 FEET
WITH NO SIGNIFICANT WEATHER AND/OR OBSTRUCTIONS TO VISIBILITY.

WYZ001-310000-
YELLOWSTONE NATIONAL PARK

CITY           SKY/WX    TMP DP  RH WIND       PRES   REMARKS
LK YELLOWSTONE   N/A     66  39  37 VRB6G17   30.14F
W YELLOWSTONE  NOT AVBL

$$
WYZ002>013-054>058-071-098>099-310000-
NORTHERN WYOMING

CITY           SKY/WX    TMP DP  RH WIND       PRES   REMARKS
JACKSON        PTSUNNY   73  41  31 SW17      30.05F
CODY           FAIR      82  39  21 W12G23    29.86F
GREYBULL       FAIR      90  43  19 NE7       29.76F
WORLAND        FAIR      85  56  37 CALM      29.78F
SHERIDAN       FAIR      83  49  30 SW5       29.81F
BUFFALO        FAIR      78  50  37 N7        29.91F
GILLETTE       LGT RAIN  82  46  28 W20G28    29.86R
HULETT         FAIR      88  45  22 NE9G16    29.85S
NEWCASTLE      FAIR      91  36  14 CALM      29.82F

$$
WYZ014>020-022>026-101>103-310000-
CENTRAL WYOMING

CITY           SKY/WX    TMP DP  RH WIND       PRES   REMARKS
BIG PINEY      FAIR      78  36  21 W17G26    30.10F
PINEDALE       FAIR      75  34  22 W15G23    30.10S
DUBOIS         FAIR      73  32  21 NW25G38   30.06R
LANDER         FAIR      79  44  28 S28G36    29.92F
RIVERTON       FAIR      80  41  24 S22G32    29.94S
CASPER         FAIR      82  40  22 SW16      29.97R
DOUGLAS        FAIR      88  41  19 W13G22    29.93R

$$
WYZ021-027>030-104>119-310000-
SOUTHERN WYOMING

CITY           SKY/WX    TMP DP  RH WIND       PRES   REMARKS
EVANSTON       FAIR      74  41  30 S13       30.13S
KEMMERER       FAIR      77  34  20 W23G33    30.12S
FORT BRIDGER   TSTM      61  52  72 W8        30.16R
ROCK SPRINGS   FAIR      71  52  50 SW7       30.10F
DIXON          FAIR      82  39  21 SW18G24   30.13F
RAWLINS        PTSUNNY   74  44  34 NW23G32   30.13R
SARATOGA       FAIR      79  37  22 W9G18     30.15F
LARAMIE        CLOUDY    75  42  30 SW31G46   30.16R THUNDER
CHEYENNE       FAIR      88  35  15 NW7       30.03F
TORRINGTON     FAIR      97  37  12 SE14      29.84F HX  92
PINE BLUFFS    FAIR      93  34  12 S10       29.95F

$$


USA.gov is the U.S. government's official web portal to all federal, state and local government web resources and services.